Home   Weather   East London   Past weeks

Flag for South Africa Past Weather in East London, South Africa — Yesterday and Last 2 Weeks

Now
64 °F

Drizzle. Mostly cloudy.


Feels Like: 64 °F
Forecast: 68 / 69 °F
Wind: 5 mph from West

Location: East London

Current Time: Dec 9, 2016 at 9:37:29 pm

Latest Report: Dec 9, 2016 at 8:00 pm


Visibility: 6 mi

Pressure: 30.04 "Hg

Humidity: 94%

Dew Point: 63 °F

Location of East LondonLocation

Past Weather in East London — Graph

°F

East London Temperature Yesterday

Maximum temperature yesterday: 82 °F (at 11:00 am)
Minimum temperature yesterday: 68 °F (at 5:00 am)
Average temperature yesterday: 77 °F

High & Low Weather Summary for the Past Weeks

 TemperatureHumidityPressure
High82 °F (Dec 8, 11:00 am)100% (Dec 5, 5:00 am)30.24 "Hg (Dec 5, 5:00 am)
Low57 °F (Nov 26, 5:00 am)39% (Dec 9, 8:00 am)29.68 "Hg (Dec 3, 6:00 pm)
Average72 °F72%29.98 "Hg
* Reported Nov 25 5:00 am — Dec 9 8:00 pm, East London, Weather by CustomWeather, © 2016

Note: Actual official high and low records may vary slightly from our data, if they occured in-between our weather recording intervals... More about our weather records

Advertising

East London Weather History for the Previous 24 Hours

Scroll right to see more
 ConditionsComfort  
Time TempWeatherWind HumidityBarometerVisibility
8:00 pm
Fri, Dec 9
64 °FDrizzle. Mostly cloudy.5 mph94%30.04 "Hg6 mi
7:00 pm64 °FDrizzle. Cloudy.9 mph94%30.01 "Hg2 mi
6:54 pm64 °FDrizzle. Cloudy.9 mph94%30.01 "Hg2 mi
5:00 pm68 °FLight rain. Broken clouds.13 mph94%29.92 "HgN/A
4:00 pm70 °FCloudy.22 mph83%29.92 "HgN/A
3:00 pm70 °FPassing clouds.25 mph78%29.89 "HgN/A
2:00 pm73 °FSunny.26 mph65%29.89 "Hg10 mi
1:00 pm73 °FSunny.22 mph61%29.89 "Hg10 mi
12:00 pm77 °FSunny.20 mph47%29.89 "Hg10 mi
11:00 am77 °FSunny.20 mph47%29.89 "Hg10 mi
10:00 am79 °FSunny.17 mph39%29.89 "Hg10 mi
9:00 am79 °FSunny.17 mph39%29.89 "Hg10 mi
8:00 am77 °FPassing clouds.12 mph39%29.89 "HgN/A
7:00 am68 °FSunny.5 mph60%29.86 "Hg10 mi
6:00 am64 °FPassing clouds.5 mph78%29.86 "HgN/A
5:00 am61 °FSunny.3 mph83%29.83 "Hg10 mi
Weather by CustomWeather, © 2016

See weather overviewHow to use our weather pages